Lapse_Rate
6.7 7.0 7.2 7.0 7.2 7.3 7.2 6.9 6.4 6.2 5.2 5.2 5.3 5.4 5.2 5.6 5.2 5.5 5.6 5.7 5.4 5.5 5.4 5.6 5.7 5.8 5.8 5.9 6.2 6.2 6.1 6.1 6.0 5.9 5.8 6.0 5.9 5.9 6.0 5.5 5.7 5.6 5.5 5.8
6.8 7.2 7.1 6.9 7.2 7.4 7.3 7.2 6.9 6.1 6.1 5.1 4.8 5.1 5.4 5.4 5.3 5.6 5.8 5.8 5.5 5.6 5.4 5.6 5.5 5.8 5.8 5.6 5.9 6.5 6.0 5.8 5.8 5.8 5.5 5.5 5.8 6.0 6.0 5.6 5.7 5.8 5.9 6.0
7.2 7.5 7.4 7.6 7.6 7.7 7.6 7.6 7.3 6.6 6.2 5.6 5.5 5.4 5.1 5.3 5.2 5.3 5.6 5.6 5.7 5.8 5.7 5.8 5.6 5.7 5.7 5.7 5.7 6.3 6.1 5.9 5.7 5.7 5.9 5.9 6.1 5.9 6.0 6.0 5.9 5.8 5.9 6.0
7.5 7.8 7.8 8.2 8.1 8.0 7.7 7.9 7.8 6.7 6.3 6.2 6.1 5.3 5.5 5.5 5.1 4.8 5.3 5.6 5.8 5.8 5.7 5.8 5.5 5.7 5.7 5.8 5.8 6.1 5.9 6.0 5.7 5.5 5.8 6.0 5.8 5.8 5.8 5.9 5.9 6.0 5.9 5.9
7.7 7.9 8.0 8.0 8.3 8.1 8.0 7.8 7.6 6.5 6.5 6.1 6.0 5.2 6.0 5.6 5.3 5.1 5.2 5.5 5.7 5.8 5.8 5.9 5.5 5.5 5.7 5.7 5.8 6.0 6.0 5.8 5.7 5.7 5.8 5.8 5.7 5.8 5.8 5.7 5.9 6.0 5.9 6.2
8.0 8.0 8.2 8.4 8.3 8.2 8.2 7.8 7.2 6.9 6.6 6.0 5.5 5.3 6.2 5.9 5.9 5.7 5.4 5.9 5.6 5.8 5.8 5.7 5.4 5.3 5.6 5.7 5.8 6.0 6.2 6.2 5.9 5.7 5.7 5.9 5.7 5.9 6.1 6.2 6.2 6.2 6.0 5.9
8.1 8.2 8.4 8.6 8.1 7.9 7.7 7.4 6.5 6.1 6.1 5.7 6.1 5.4 6.1 6.2 5.4 5.1 5.4 6.0 6.1 6.1 5.8 5.5 5.5 5.5 5.5 5.8 5.8 6.1 6.2 6.2 6.2 5.9 5.7 5.6 5.8 5.9 6.0 6.1 5.9 6.0 6.1 6.0
8.2 8.4 8.7 8.7 8.5 8.8 8.1 7.7 7.7 6.5 6.4 6.0 6.4 6.3 7.0 6.4 5.5 5.3 5.5 5.8 6.4 5.9 5.7 5.6 5.9 5.8 5.5 5.6 5.8 5.8 6.1 6.2 6.2 6.1 6.2 5.9 5.7 5.8 6.1 6.1 6.0 5.9 6.0 6.2
8.2 8.6 8.7 8.7 8.7 8.6 7.8 7.7 8.1 7.7 6.3 6.6 6.9 6.7 6.9 6.4 6.3 5.5 5.7 5.6 5.7 5.7 5.5 5.7 5.8 5.8 5.6 5.5 5.6 5.7 6.0 6.0 6.0 5.9 6.0 6.2 5.8 5.7 5.7 6.0 6.0 5.9 5.9 6.0
8.2 8.6 8.7 8.9 9.0 8.4 8.2 8.5 8.2 8.5 6.6 6.7 6.6 6.4 6.8 6.9 7.1 6.5 6.4 6.6 6.5 6.7 6.0 5.6 5.9 5.9 5.8 5.6 5.3 5.5 5.7 5.9 5.7 5.8 5.8 5.7 5.8 5.8 5.8 5.9 6.1 6.1 6.0 6.0
8.1 8.3 8.7 9.0 8.9 8.7 8.3 8.2 8.3 8.3 8.0 7.1 6.8 7.5 8.5 8.4 7.7 7.1 6.9 6.7 6.9 6.6 6.0 5.9 6.0 6.2 6.1 5.6 5.4 5.5 5.6 5.8 6.1 6.0 5.9 5.7 5.7 5.8 5.8 5.9 6.0 6.0 6.1 6.2
8.0 8.2 8.6 8.8 8.8 8.7 8.6 8.5 8.5 8.5 8.3 8.0 7.8 8.6 8.8 8.5 8.6 7.9 7.8 7.9 7.8 6.9 6.1 5.8 6.6 6.4 6.2 5.7 5.5 5.5 5.3 5.4 5.6 5.7 5.9 5.9 5.9 5.8 5.8 5.6 5.4 5.4 5.7 6.0
7.8 7.9 8.2 8.7 8.5 8.5 8.5 8.1 8.3 8.3 8.4 8.4 8.1 8.3 8.8 8.7 7.9 8.0 8.0 7.7 7.4 7.3 6.5 6.3 5.8 5.9 6.5 6.0 5.7 5.6 5.6 5.5 5.5 5.3 5.4 5.6 5.9 5.9 5.8 5.7 5.5 5.3 5.4 5.5
7.8 7.7 7.9 8.1 8.4 8.2 8.3 8.1 8.2 8.1 8.1 8.3 8.7 8.6 9.0 8.3 7.5 7.9 7.9 7.8 7.4 7.1 6.4 6.4 5.7 6.3 6.7 6.5 6.2 6.1 5.8 5.8 5.6 5.4 5.3 5.5 5.6 5.7 5.8 5.5 5.6 5.7 5.7 5.6
7.7 7.7 7.6 7.8 8.0 7.9 8.1 8.1 8.2 8.1 7.8 7.9 8.4 8.3 8.6 8.6 7.6 7.7 7.9 7.3 7.7 7.4 7.2 6.9 6.2 6.3 6.7 6.5 6.4 6.2 6.0 6.1 5.9 5.6 5.6 5.6 5.9 5.9 5.9 6.1 6.0 5.7 5.6 5.5
7.6 7.5 7.5 7.6 7.6 7.8 7.7 8.0 8.2 8.3 8.0 7.8 7.9 7.9 8.4 8.7 8.1 7.3 7.4 7.5 7.5 7.7 7.2 7.1 6.7 7.0 7.0 6.8 6.7 6.3 6.1 6.3 6.1 6.1 5.9 5.7 5.5 5.6 5.8 5.8 5.7 5.8 5.7 5.6
7.7 7.7 7.6 7.5 7.6 7.6 7.6 7.8 8.0 8.2 8.0 8.0 7.8 8.0 7.8 8.4 8.2 7.6 7.3 7.1 7.5 7.4 7.4 7.2 7.2 7.0 7.3 6.9 6.6 6.3 6.2 6.0 5.8 6.0 5.7 5.5 5.5 5.5 5.7 5.6 5.6 5.5 5.5 5.4
7.7 7.7 7.8 7.8 7.7 6.7 7.7 7.7 7.8 7.9 7.8 7.9 7.8 7.9 7.5 7.3 7.5 7.5 7.3 7.1 7.0 7.5 7.1 7.3 6.9 7.0 7.0 6.9 6.8 6.6 6.3 5.9 5.8 5.7 5.5 5.5 5.4 5.5 5.3 5.3 5.2 5.3 5.6 5.6
7.8 7.7 7.7 7.8 7.7 7.3 7.6 7.6 7.7 7.7 7.9 7.6 7.5 7.5 7.2 7.2 7.5 7.6 7.5 7.6 7.6 7.4 7.1 7.3 7.2 7.1 6.8 6.7 6.4 6.2 5.9 6.0 5.7 5.4 5.3 5.5 5.2 5.1 4.9 5.0 5.1 5.3 5.1 5.1
7.6 7.7 7.7 7.7 7.6 6.9 7.7 7.6 7.3 7.6 7.7 7.6 7.4 7.5 7.3 7.4 7.4 7.4 7.2 7.2 7.4 7.3 7.0 6.9 6.5 6.3 6.0 5.9 5.9 5.6 5.6 5.6 5.4 5.0 5.1 5.2 4.9 5.0 5.0 5.0 5.2 5.5 5.1 5.1
7.6 7.7 7.8 7.9 7.7 7.6 7.8 7.6 7.3 7.4 7.8 7.8 7.7 7.5 7.4 7.2 7.5 7.6 7.5 7.3 7.2 7.0 6.8 6.8 6.5 6.2 6.5 6.3 5.6 5.2 5.0 5.9 5.3 5.6 4.5 4.7 5.1 5.0 5.2 5.0 4.9 5.1 5.3 5.3
7.6 7.6 7.6 7.4 7.3 7.5 7.7 7.4 7.5 7.5 7.7 7.6 7.4 7.7 7.4 7.6 7.4 7.6 7.4 7.4 7.3 7.3 7.2 7.0 6.7 6.5 6.3 6.2 5.9 6.1 5.7 6.5 6.0 5.5 5.6 5.3 5.0 4.9 5.1 5.0 5.0 5.2 5.5 5.4
7.6 7.6 7.5 7.4 7.6 7.8 7.8 7.7 7.9 7.5 7.3 7.3 7.6 7.4 7.2 7.5 7.5 7.5 7.3 7.5 7.6 7.5 7.4 7.3 7.0 6.6 6.3 6.1 6.1 6.2 6.3 6.3 6.3 6.2 6.0 5.7 5.2 5.3 5.0 5.0 5.3 5.2 5.3 5.3
7.7 7.6 7.5 7.5 7.5 7.3 7.4 7.7 7.5 7.3 7.2 7.0 6.9 6.8 6.6 7.0 7.4 7.1 7.1 7.2 7.3 7.2 7.2 7.1 7.2 7.0 7.1 6.4 6.3 5.9 5.9 6.0 5.7 5.7 5.5 5.7 5.6 5.5 5.4 5.3 5.3 5.3 5.4 5.0
7.7 7.5 7.4 7.5 7.5 6.9 7.2 7.0 7.0 7.0 6.8 6.6 6.6 6.7 6.8 6.8 7.0 7.0 7.0 6.9 6.9 6.8 6.7 6.7 6.8 6.7 6.8 6.6 6.4 6.5 6.3 5.7 5.8 5.5 5.7 5.8 5.7 5.8 5.6 5.4 5.3 5.6 5.4 5.4
7.5 7.5 7.4 7.3 7.3 7.2 7.1 7.0 7.0 6.9 6.9 6.8 7.0 7.0 6.4 6.5 6.7 6.8 6.6 6.7 6.7 6.6 6.5 6.3 6.3 6.6 6.8 6.9 6.7 6.3 5.7 5.5 5.7 5.9 6.0 6.1 5.7 5.8 5.9 6.0 5.9 5.7 5.7 5.7
Wind_Speed
2 4 5 5 5 4 4 4 6 4 6 7 4 3 7 12 5 11 13 13 12 14 10 9 8 8 7 6 6 7 7 6 5 2 3 2 3 2 1 3 5 3 0 3
6 2 5 3 4 2 3 6 3 2 3 3 4 3 4 11 5 6 16 13 16 8 8 10 9 8 8 8 8 7 7 7 4 3 3 3 3 2 2 4 4 6 4 4
5 2 7 3 3 5 3 5 4 4 3 2 4 2 5 6 4 7 6 16 14 17 14 12 12 11 8 9 11 9 7 6 5 5 4 3 4 3 2 1 1 5 8 6
2 2 3 3 3 5 4 5 9 10 2 1 5 4 4 9 10 7 6 10 14 16 13 10 12 11 11 10 8 7 8 7 5 7 5 7 4 3 3 3 2 4 6 4
6 3 4 3 7 8 4 9 8 3 4 2 3 3 5 9 9 12 8 10 13 15 16 16 15 14 13 10 9 7 7 7 5 6 6 5 4 3 3 3 4 2 2 3
7 2 4 5 1 6 12 8 7 5 3 2 1 7 4 6 16 20 6 9 12 12 14 13 10 8 7 7 8 8 9 7 6 6 6 8 8 6 4 3 3 2 1 1
6 2 1 5 8 7 6 6 3 3 2 0 4 3 9 9 7 20 16 13 11 14 14 12 13 13 10 11 11 9 10 9 8 6 6 7 7 7 7 6 4 4 2 2
2 4 7 6 7 8 6 6 5 6 5 3 3 5 5 4 5 16 17 15 13 14 15 17 18 15 15 13 12 11 11 9 9 8 6 5 6 5 4 5 4 4 4 3
2 4 4 5 4 10 5 4 4 6 3 3 1 5 6 7 13 8 16 16 17 15 18 19 18 16 14 14 13 13 11 9 10 9 6 6 5 6 6 6 4 4 4 3
3 2 3 5 3 2 7 5 1 2 4 2 3 3 5 10 13 8 13 19 19 18 18 17 17 17 15 12 12 11 11 13 10 10 9 7 7 6 5 4 6 6 5 5
2 2 6 2 4 2 1 1 2 3 3 5 3 5 4 4 10 9 10 13 16 16 17 18 17 16 15 13 12 12 10 10 9 9 8 7 7 6 5 5 5 6 4 6
1 4 2 4 3 4 1 1 4 4 3 2 3 4 7 7 2 3 0 6 8 14 17 17 18 16 14 14 11 11 10 10 10 9 8 9 6 6 6 5 6 5 6 5
2 1 3 6 6 3 5 3 1 2 3 5 4 4 4 5 6 5 2 3 5 10 11 11 10 15 14 13 13 12 11 12 9 9 9 7 7 6 6 6 4 4 5 5
5 2 5 5 5 2 1 4 2 2 3 3 3 2 2 5 5 6 5 5 1 8 10 8 9 12 13 13 13 12 11 10 10 10 10 10 10 9 8 5 5 5 5 5
4 1 2 5 4 1 1 1 4 2 2 4 2 3 3 3 4 4 4 5 3 4 9 11 10 8 10 11 11 10 10 10 11 11 10 10 8 7 5 5 5 5 5 5
2 1 2 2 2 5 1 1 6 4 3 4 3 2 1 3 2 5 7 6 4 4 3 7 7 7 9 12 12 12 10 10 11 11 11 8 7 6 6 6 4 3 4 4
1 3 2 4 3 5 5 2 1 4 1 3 3 3 3 2 3 4 5 6 6 4 6 7 3 3 3 5 6 7 5 5 8 8 6 6 6 6 6 5 5 3 3 3
4 3 2 3 3 2 3 3 3 3 4 2 4 3 5 5 5 4 6 6 6 6 6 7 6 6 7 8 8 8 7 6 5 5 5 4 4 4 4 5 4 4 2 2
2 4 2 3 2 4 2 4 4 4 3 4 7 7 6 6 2 4 8 6 5 6 6 4 3 7 8 9 10 9 8 6 4 4 5 1 4 5 5 5 4 3 2 3
4 4 4 1 3 6 5 2 3 3 2 8 7 9 8 4 1 0 4 6 7 6 5 5 4 5 7 5 5 6 8 8 4 2 3 5 4 5 6 6 5 3 3 4
3 3 3 3 3 6 4 4 3 3 5 5 6 6 6 3 2 2 3 6 5 5 6 5 6 6 4 2 3 3 3 7 9 8 5 5 4 4 5 4 3 4 5 6
5 4 3 3 2 5 2 3 6 5 3 4 3 3 7 9 7 6 6 7 7 8 8 7 6 6 5 6 4 5 4 6 6 5 5 6 4 4 4 7 6 6 7 7
2 5 3 7 5 4 4 4 5 4 3 3 5 8 6 6 7 6 5 7 8 8 7 6 6 7 8 8 7 8 4 4 5 8 7 5 5 4 3 6 7 6 4 4
3 4 2 1 2 4 2 4 3 3 3 7 6 9 7 8 7 9 4 5 6 5 6 5 7 8 8 8 9 6 6 7 8 8 7 6 5 6 7 5 4 4 4 3
4 5 5 3 4 3 3 3 2 2 5 10 7 4 5 9 7 7 2 4 4 5 4 4 5 6 6 6 6 5 6 7 8 7 7 6 5 7 6 7 5 5 5 2
5 7 5 6 8 5 6 5 3 6 6 6 11 6 4 5 7 5 5 3 2 4 3 4 4 6 5 5 5 5 5 5 7 6 4 3 3 5 4 5 4 9 7 8
Wind_Direction
13 89 198 180 190 141 124 92 87 77 32 20 360 155 193 206 232 204 187 182 190 194 197 183 176 167 146 158 164 168 155 166 145 139 121 116 160 160 223 177 168 185 217 168
33 232 217 164 169 152 124 123 100 105 124 116 272 235 174 202 249 265 194 185 197 170 175 184 173 173 175 166 186 172 179 170 181 142 137 134 141 149 147 159 181 208 192 194
136 225 122 157 154 152 197 139 165 146 217 156 298 274 162 202 197 268 203 192 187 184 185 183 178 183 178 180 185 184 174 189 172 150 116 86 86 78 82 107 183 208 189 186
218 286 194 162 190 145 215 196 122 134 129 84 78 300 213 183 205 225 209 194 197 192 190 172 181 183 188 196 173 176 168 182 183 159 148 157 152 149 192 166 182 194 200 186
259 234 185 187 210 162 171 115 108 118 83 56 85 307 268 166 209 223 213 200 199 190 184 179 190 194 191 176 177 172 165 173 177 177 166 149 151 163 151 149 167 185 238 206
242 253 170 192 360 147 120 91 52 65 51 71 242 200 270 184 214 205 204 211 194 184 186 191 184 186 189 167 168 166 174 176 180 183 172 168 166 168 151 165 179 189 196 266
324 259 64 113 78 4 87 85 47 24 43 229 286 225 266 272 198 199 203 204 194 188 182 174 175 181 189 184 179 175 178 180 179 188 189 176 178 175 181 180 179 170 190 203
75 323 168 169 172 177 180 136 156 165 188 208 78 228 250 239 190 198 202 187 191 191 186 183 185 189 184 192 188 182 180 181 178 181 204 188 179 175 187 190 183 191 200 206
90 290 282 225 150 142 214 216 201 112 320 112 243 296 301 247 265 199 189 181 189 191 188 189 186 188 186 187 193 186 182 182 182 180 184 200 186 188 194 199 199 206 193 205
214 325 260 288 114 351 151 164 144 18 134 200 243 270 274 225 225 232 192 199 200 188 189 188 186 187 186 189 189 186 187 188 185 181 184 194 197 201 206 189 212 205 207 207
117 99 291 348 14 210 72 170 20 125 128 163 180 249 312 258 217 202 206 225 208 183 187 185 187 188 185 179 187 184 185 178 181 183 180 179 190 199 192 202 214 215 193 201
41 137 272 227 275 265 94 85 154 142 221 239 178 278 347 343 29 104 258 210 185 178 180 185 182 180 175 178 178 188 183 187 194 189 181 188 182 188 199 208 214 215 222 225
177 12 6 353 355 7 59 352 41 99 69 198 153 277 2 345 32 41 75 121 146 159 168 176 170 177 177 179 178 184 185 192 185 180 187 178 183 189 208 217 226 217 219 225
92 129 155 198 230 193 81 351 12 140 134 172 231 154 312 343 7 16 17 360 154 142 143 148 173 185 177 186 182 185 196 186 177 178 186 192 186 196 196 200 203 215 223 225
88 225 241 263 249 142 128 291 5 85 162 189 33 126 234 287 321 341 337 2 21 160 155 162 165 184 172 176 186 190 192 182 178 181 184 196 190 181 181 178 201 213 214 224
16 230 328 280 351 213 186 194 122 48 331 263 136 125 24 320 347 6 8 5 26 12 238 172 162 169 185 190 190 191 190 191 179 183 187 169 159 161 176 165 168 179 213 209
94 120 74 269 10 333 296 310 10 141 203 268 221 195 158 116 68 5 354 17 22 41 65 29 63 135 125 176 171 178 170 154 172 167 154 149 151 154 142 144 150 168 192 186
142 104 101 234 6 208 251 277 299 134 120 103 119 152 160 133 100 57 23 21 20 28 84 111 114 95 90 90 82 92 105 123 128 138 125 131 127 135 151 173 170 179 163 147
44 122 96 174 183 287 297 199 202 230 143 183 161 154 147 146 111 54 36 36 21 9 8 28 74 114 114 115 122 113 103 90 107 154 121 129 149 166 181 188 185 161 169 117
64 68 123 136 178 209 233 154 140 108 273 186 189 163 184 180 137 137 30 41 39 31 15 19 66 47 86 81 69 111 130 134 117 3 128 126 163 178 179 191 165 126 128 111
353 359 154 158 241 294 248 153 132 122 236 133 171 161 178 163 114 104 76 66 49 42 41 38 75 79 48 24 108 148 218 147 138 127 130 116 137 165 158 156 121 112 108 110
190 157 206 106 90 263 17 115 156 227 310 76 66 93 125 123 110 89 57 53 52 52 45 46 65 67 49 45 93 93 60 42 76 103 105 104 128 141 130 118 114 108 120 121
262 186 187 179 218 248 247 241 257 210 146 150 107 121 145 137 115 83 61 64 53 50 53 57 64 56 48 48 57 64 32 62 78 83 68 61 54 73 95 118 115 118 115 128
229 173 182 50 266 247 281 284 251 308 178 124 124 139 152 125 93 87 92 87 81 61 62 55 64 58 52 58 67 53 52 68 83 84 78 67 60 63 44 47 44 84 112 137
201 135 164 257 275 292 251 248 295 82 106 106 103 104 95 112 109 122 129 90 98 92 62 60 88 92 73 64 62 55 73 87 80 81 75 62 75 80 73 59 42 80 56 28
190 179 162 214 200 176 191 209 166 133 123 130 124 104 89 124 137 141 143 138 111 105 99 88 72 73 69 61 58 47 62 91 107 104 98 105 100 94 94 101 89 58 84 77